EDV2395 CYVR-KDEN

Flight info

Callsign EDV2395
Flight time N/A
Altitude 37000
Route YVR J52 DBS DCT TOFUU FLATI4
Aircraft CRJ7/M-SDFGIRWY/S

Departure

Time 2026-05-05 02:39
Airport Vancouver International Airport (CYVR)

Arrival

Time N/A
Airport Denver International Airport (KDEN)
Time Latitude Longitude Altitude Speed Heading
2026-05-05 01:38 49.19642 -123.18466 15 ft 0 kts 198°
2026-05-05 02:20 49.19656 -123.18459 16 ft 2 kts 198°
2026-05-05 02:20 49.19672 -123.18451 15 ft 2 kts 198°
2026-05-05 02:21 49.19685 -123.18437 15 ft 2 kts 243°
2026-05-05 02:21 49.19687 -123.18421 15 ft 0 kts 281°
2026-05-05 02:21 49.19687 -123.18422 15 ft 0 kts 281°
2026-05-05 02:27 49.19687 -123.18424 15 ft 1 kts 281°
2026-05-05 02:27 49.19692 -123.18445 15 ft 3 kts 294°
2026-05-05 02:27 49.19704 -123.18493 17 ft 6 kts 285°
2026-05-05 02:27 49.19715 -123.18570 17 ft 8 kts 279°
2026-05-05 02:28 49.19707 -123.18650 15 ft 8 kts 233°
2026-05-05 02:28 49.19662 -123.18681 16 ft 7 kts 191°
2026-05-05 02:28 49.19610 -123.18696 15 ft 8 kts 190°
2026-05-05 02:28 49.19557 -123.18711 16 ft 8 kts 190°
2026-05-05 02:29 49.19501 -123.18727 16 ft 8 kts 191°
2026-05-05 02:29 49.19444 -123.18742 15 ft 8 kts 189°
2026-05-05 02:29 49.19396 -123.18781 15 ft 8 kts 242°
2026-05-05 02:29 49.19380 -123.18861 17 ft 8 kts 256°
2026-05-05 02:30 49.19346 -123.18899 17 ft 6 kts 173°
2026-05-05 02:30 49.19313 -123.18870 15 ft 6 kts 142°
2026-05-05 02:30 49.19281 -123.18832 16 ft 6 kts 142°
2026-05-05 02:30 49.19247 -123.18792 17 ft 7 kts 142°
2026-05-05 02:31 49.19205 -123.18743 17 ft 8 kts 142°
2026-05-05 02:31 49.19158 -123.18687 17 ft 9 kts 142°
2026-05-05 02:31 49.19106 -123.18623 16 ft 10 kts 141°
2026-05-05 02:31 49.19049 -123.18552 17 ft 11 kts 141°
2026-05-05 02:32 49.18986 -123.18476 18 ft 12 kts 141°
2026-05-05 02:32 49.18945 -123.18366 18 ft 13 kts 99°
2026-05-05 02:32 49.18930 -123.18229 16 ft 13 kts 101°
2026-05-05 02:32 49.18913 -123.18084 16 ft 14 kts 100°
2026-05-05 02:33 49.18895 -123.17931 16 ft 15 kts 99°
2026-05-05 02:33 49.18876 -123.17768 17 ft 16 kts 101°
2026-05-05 02:33 49.18858 -123.17600 16 ft 17 kts 98°
2026-05-05 02:33 49.18839 -123.17420 17 ft 17 kts 99°
2026-05-05 02:34 49.18818 -123.17238 18 ft 18 kts 101°
2026-05-05 02:34 49.18795 -123.17046 17 ft 19 kts 100°
2026-05-05 02:34 49.18772 -123.16847 17 ft 19 kts 99°
2026-05-05 02:34 49.18751 -123.16640 17 ft 20 kts 100°
2026-05-05 02:35 49.18726 -123.16428 17 ft 20 kts 100°
2026-05-05 02:35 49.18678 -123.16261 17 ft 12 kts 133°
2026-05-05 02:35 49.18622 -123.16199 18 ft 0 kts 173°
2026-05-05 02:37 49.18617 -123.16199 18 ft 2 kts 174°
2026-05-05 02:37 49.18588 -123.16199 18 ft 7 kts 184°
2026-05-05 02:37 49.18523 -123.16218 18 ft 12 kts 205°
2026-05-05 02:37 49.18501 -123.16322 17 ft 11 kts 278°
2026-05-05 02:38 49.18515 -123.16456 16 ft 24 kts 279°
2026-05-05 02:38 49.18588 -123.17101 16 ft 99 kts 279°
2026-05-05 02:38 49.18744 -123.18470 32 ft 157 kts 277°
2026-05-05 02:38 49.18966 -123.20226 426 ft 177 kts 280°
2026-05-05 02:39 49.19223 -123.22167 945 ft 191 kts 280°
2026-05-05 02:39 49.19488 -123.24183 1461 ft 196 kts 280°
2026-05-05 02:39 49.19757 -123.26255 1926 ft 205 kts 281°
2026-05-05 02:39 49.20038 -123.28279 2812 ft 180 kts 284°
2026-05-05 02:40 49.20352 -123.30089 3477 ft 174 kts 286°
2026-05-05 02:40 49.20669 -123.31868 4021 ft 173 kts 286°
2026-05-05 02:40 49.21046 -123.33593 4541 ft 170 kts 295°
2026-05-05 02:40 49.21191 -123.35335 4998 ft 174 kts 254°
2026-05-05 02:41 49.20331 -123.36778 5236 ft 197 kts 203°
2026-05-05 02:41 49.18958 -123.36830 5756 ft 206 kts 155°
2026-05-05 02:41 49.17921 -123.35408 6323 ft 205 kts 114°
2026-05-05 02:41 49.17464 -123.33346 6841 ft 207 kts 103°
2026-05-05 02:42 49.17119 -123.31181 7341 ft 212 kts 101°
2026-05-05 02:42 49.16742 -123.28970 7860 ft 218 kts 107°
2026-05-05 02:42 49.16143 -123.26804 8377 ft 225 kts 116°
2026-05-05 02:42 49.15268 -123.24774 8911 ft 233 kts 127°
2026-05-05 02:43 49.14133 -123.22955 9443 ft 240 kts 135°
2026-05-05 02:43 49.12859 -123.21309 9962 ft 247 kts 139°
2026-05-05 02:43 49.11502 -123.19657 10454 ft 252 kts 139°
2026-05-05 02:43 49.10115 -123.17976 10948 ft 257 kts 139°
2026-05-05 02:44 49.08717 -123.16235 11447 ft 261 kts 136°
2026-05-05 02:44 49.07576 -123.14121 11961 ft 258 kts 114°
2026-05-05 02:44 49.06817 -123.11635 12476 ft 259 kts 107°
2026-05-05 02:44 49.06211 -123.09035 13005 ft 262 kts 104°
2026-05-05 02:45 49.05639 -123.06385 13539 ft 265 kts 104°
2026-05-05 02:45 49.05045 -123.03709 14017 ft 268 kts 105°
2026-05-05 02:45 49.04396 -123.01022 14488 ft 272 kts 106°
2026-05-05 02:45 49.03729 -122.98313 14968 ft 274 kts 106°
2026-05-05 02:46 49.03060 -122.95581 15451 ft 276 kts 105°
2026-05-05 02:46 49.02382 -122.92796 15761 ft 286 kts 105°
2026-05-05 02:46 49.01669 -122.89855 15813 ft 307 kts 106°
2026-05-05 02:46 49.00900 -122.86701 15851 ft 326 kts 106°
2026-05-05 02:47 49.00118 -122.83463 16390 ft 327 kts 106°
2026-05-05 02:47 48.99315 -122.80210 16923 ft 329 kts 106°
2026-05-05 02:47 48.98505 -122.76938 17452 ft 331 kts 106°
2026-05-05 02:47 48.97694 -122.73654 17992 ft 332 kts 105°
2026-05-05 02:48 48.96880 -122.70358 18459 ft 333 kts 105°
2026-05-05 02:48 48.96064 -122.67054 18934 ft 334 kts 105°
2026-05-05 02:48 48.95236 -122.63748 19404 ft 335 kts 105°
2026-05-05 02:48 48.94399 -122.60446 19883 ft 335 kts 105°
2026-05-05 02:49 48.93555 -122.57148 20366 ft 334 kts 105°
2026-05-05 02:49 48.92714 -122.53865 20855 ft 332 kts 105°
2026-05-05 02:49 48.91898 -122.50588 21345 ft 330 kts 104°
2026-05-05 02:49 48.91087 -122.47339 21850 ft 327 kts 104°
2026-05-05 02:50 48.90283 -122.44119 22366 ft 324 kts 104°
2026-05-05 02:50 48.89488 -122.40940 22878 ft 320 kts 103°
2026-05-05 02:50 48.88703 -122.37807 23401 ft 315 kts 103°
2026-05-05 02:50 48.87932 -122.34729 23848 ft 309 kts 103°
2026-05-05 02:51 48.87175 -122.31717 24288 ft 302 kts 102°
2026-05-05 02:51 48.86437 -122.28782 24739 ft 293 kts 102°
2026-05-05 02:51 48.85721 -122.25928 25072 ft 289 kts 101°
2026-05-05 02:51 48.85004 -122.23057 25196 ft 291 kts 102°
2026-05-05 02:52 48.84281 -122.20208 25475 ft 287 kts 102°
2026-05-05 02:52 48.83573 -122.17405 25753 ft 282 kts 102°
2026-05-05 02:52 48.82874 -122.14653 26039 ft 276 kts 101°
2026-05-05 02:52 48.82193 -122.11962 26300 ft 271 kts 101°
2026-05-05 02:53 48.81525 -122.09315 26401 ft 273 kts 102°
2026-05-05 02:53 48.80849 -122.06613 26499 ft 276 kts 101°
2026-05-05 02:53 48.80163 -122.03829 26609 ft 280 kts 101°
2026-05-05 02:53 48.79478 -122.01085 26881 ft 277 kts 101°
2026-05-05 02:54 48.78793 -121.98453 27183 ft 268 kts 102°
2026-05-05 02:54 48.78104 -121.95863 27374 ft 262 kts 101°
2026-05-05 02:54 48.77441 -121.93306 27438 ft 260 kts 101°
2026-05-05 02:54 48.76783 -121.90673 27180 ft 275 kts 102°
2026-05-05 02:55 48.76094 -121.87916 27077 ft 282 kts 101°
2026-05-05 02:55 48.75386 -121.85113 27108 ft 287 kts 101°
2026-05-05 02:55 48.74662 -121.82269 27120 ft 292 kts 102°
2026-05-05 02:55 48.73925 -121.79348 27091 ft 302 kts 103°
2026-05-05 02:56 48.73149 -121.76328 27073 ft 313 kts 104°
2026-05-05 02:56 48.72330 -121.73216 27137 ft 324 kts 103°
2026-05-05 02:56 48.71493 -121.69988 27226 ft 333 kts 103°
2026-05-05 02:56 48.70656 -121.66744 27554 ft 333 kts 103°
2026-05-05 02:57 48.69779 -121.63489 27866 ft 334 kts 104°
2026-05-05 02:57 48.68870 -121.60220 27989 ft 342 kts 105°
2026-05-05 02:57 48.67892 -121.56870 27997 ft 353 kts 105°
2026-05-05 02:57 48.67240 -121.54603 28115 ft 356 kts 105°
2026-05-05 02:58 48.66382 -121.51172 28646 ft 343 kts 99°
2026-05-05 02:58 48.65679 -121.47774 29150 ft 334 kts 99°
2026-05-05 02:58 48.64933 -121.44487 29691 ft 327 kts 102°
2026-05-05 02:58 48.64088 -121.41339 30195 ft 318 kts 103°
2026-05-05 02:59 48.63277 -121.38296 30479 ft 309 kts 102°
2026-05-05 02:59 48.61696 -121.32254 30471 ft 313 kts 102°
2026-05-05 02:59 48.60875 -121.29242 30756 ft 310 kts 103°
2026-05-05 03:00 48.60047 -121.26215 30808 ft 314 kts 102°
2026-05-05 03:00 48.58456 -121.20090 31241 ft 307 kts 100°
2026-05-05 03:01 48.56844 -121.13947 31223 ft 324 kts 103°
2026-05-05 03:01 48.55933 -121.10821 31415 ft 323 kts 103°
2026-05-05 03:01 48.55093 -121.07694 31512 ft 322 kts 101°
2026-05-05 03:01 48.54278 -121.04547 31624 ft 323 kts 102°
2026-05-05 03:02 48.53460 -121.01400 31707 ft 320 kts 101°
2026-05-05 03:02 48.51869 -120.95223 31855 ft 312 kts 101°
2026-05-05 03:03 48.50257 -120.89246 32048 ft 304 kts 101°
2026-05-05 03:03 48.49468 -120.86319 32064 ft 299 kts 101°
2026-05-05 03:03 48.48700 -120.83435 32109 ft 294 kts 100°
2026-05-05 03:03 48.47918 -120.80608 32200 ft 292 kts 101°
2026-05-05 03:04 48.47162 -120.77759 32173 ft 294 kts 99°
2026-05-05 03:04 48.46433 -120.74850 32175 ft 299 kts 99°
2026-05-05 03:04 48.45655 -120.71925 32204 ft 303 kts 101°
2026-05-05 03:05 48.44054 -120.66066 32291 ft 304 kts 101°
2026-05-05 03:05 48.43253 -120.63127 32399 ft 302 kts 101°
2026-05-05 03:05 48.42458 -120.60209 32476 ft 300 kts 101°
2026-05-05 03:05 48.41664 -120.57320 32588 ft 297 kts 101°
2026-05-05 03:06 48.40875 -120.54464 32689 ft 293 kts 102°
2026-05-05 03:06 48.40084 -120.51659 32787 ft 289 kts 100°
2026-05-05 03:06 48.39334 -120.48888 32890 ft 283 kts 99°
2026-05-05 03:06 48.38604 -120.46174 32984 ft 277 kts 99°
2026-05-05 03:07 48.37894 -120.43530 33068 ft 269 kts 98°
2026-05-05 03:07 48.37194 -120.40918 32938 ft 270 kts 98°
2026-05-05 03:07 48.36504 -120.38298 32782 ft 269 kts 99°
2026-05-05 03:07 48.35790 -120.35653 32542 ft 276 kts 100°
2026-05-05 03:08 48.35047 -120.32983 32499 ft 273 kts 99°
2026-05-05 03:08 48.34321 -120.30416 32657 ft 263 kts 99°
2026-05-05 03:08 48.33615 -120.27859 32399 ft 269 kts 99°
2026-05-05 03:08 48.32898 -120.25249 32265 ft 269 kts 99°
2026-05-05 03:09 48.32180 -120.22696 32310 ft 262 kts 99°
2026-05-05 03:09 48.31473 -120.20162 32160 ft 265 kts 99°
2026-05-05 03:09 48.30765 -120.17590 32004 ft 267 kts 99°
2026-05-05 03:09 48.30053 -120.15037 31977 ft 264 kts 99°
2026-05-05 03:10 48.29351 -120.12470 31769 ft 269 kts 99°
2026-05-05 03:10 48.28645 -120.09776 31389 ft 286 kts 99°
2026-05-05 03:10 48.27898 -120.06906 31012 ft 305 kts 101°
2026-05-05 03:10 48.27058 -120.03906 30674 ft 327 kts 102°
2026-05-05 03:11 48.26125 -120.00672 30339 ft 348 kts 102°
2026-05-05 03:11 48.25157 -119.97229 29967 ft 369 kts 103°
2026-05-05 03:11 48.24135 -119.93581 29547 ft 390 kts 104°
2026-05-05 03:11 48.23056 -119.89746 29167 ft 407 kts 104°
2026-05-05 03:12 48.21941 -119.85782 29022 ft 418 kts 104°
2026-05-05 03:12 48.19637 -119.77588 28903 ft 434 kts 105°
2026-05-05 03:13 48.17253 -119.69116 28877 ft 448 kts 105°
2026-05-05 03:13 48.14793 -119.60403 28844 ft 460 kts 105°
2026-05-05 03:14 48.12263 -119.51483 28823 ft 472 kts 105°
2026-05-05 03:14 48.09664 -119.42354 28787 ft 482 kts 106°
2026-05-05 03:15 48.07007 -119.33046 28763 ft 491 kts 105°
2026-05-05 03:15 48.04291 -119.23574 28702 ft 500 kts 106°
2026-05-05 03:16 48.01529 -119.13968 28642 ft 507 kts 106°
2026-05-05 03:16 47.98721 -119.04259 28573 ft 511 kts 107°
2026-05-05 03:17 47.95880 -118.94487 28525 ft 515 kts 107°
2026-05-05 03:17 47.93026 -118.84657 28521 ft 518 kts 107°
2026-05-05 03:18 47.90158 -118.74901 28740 ft 508 kts 107°
2026-05-05 03:18 47.87346 -118.65348 28798 ft 500 kts 107°
2026-05-05 03:19 47.83265 -118.51476 28805 ft 473 kts 107°
2026-05-05 03:19 47.80657 -118.42663 28808 ft 458 kts 106°